铱星星座 117星 (IRIDIUM 117)

导读

IRIDIUM 117是美国铱星公司第二代铱星星座(Iridium Next)的通信卫星,于2017年6月25日发射入轨。它运行在近地轨道,属于全球卫星通信系统的组成部分,主要提供全球覆盖的语音和数据通信服务。该卫星广泛服务于航空、航海、军事及应急通信等领域,依靠铱星星座组网实现无缝全球通信连接,具备高可靠性和抗干扰特性,至今仍在轨承担通信任务,支撑偏远地区与跨洋通信需求。

基本信息
目录编号:
42808
目录名称:
IRIDIUM 117
国际标识:
2017-039F
轨道中心:
EARTH
卫星名称:
铱星星座 117星
卫星全名:
铱星星座 117星 (IRIDIUM 117)
卫星状态:
在轨 (已飞行3319 天)
发射日期:
2017-06-25 UTC
国别 :
美国 (US)
星等 :
--
轨道信息
数据来源 国际轨道数据 AOE轨道数据
星历时间 2026-07-27T08:44:27+0800
21小时前
查看轨道信息
2026-07-23T06:00:00+0800
5天前
查看轨道信息
半长轴 7155.806km 7155.805km
偏心率 0.0002084 0.0002102
轨道倾角 86.400° 86.402°
近地点辐角 95.286° 89.648°
升交点赤经 336.940° 338.662°
平近点角 264.857° 281.547°
近地点 776.177km 776.163km
远地点 779.161km 779.173km
周期 100.403分钟 100.403分钟
每日圈数 14.342174 14.342177
详细信息
平衡模式:
三轴稳定
覆盖范围:
全球
运营商:
铱星通信公司
运营商所在国:
美国
制造商(研发单位):
阿莱尼亚宇航公司
制造商所在国:
意大利
使用方式:
暂无
卫星简介
铱星(Iridium)是由共66个运作中的通信卫星组成的卫星通信系统。这个系统原本规划77个通信卫星,所以用原子序数为77的铱元素来命名。铱卫星允许人们使用手持型电子设备进行全球性的语音及数据通讯。该卫星仍在工作。
2D轨道图
3D轨道图
轨道高度分析图
轨道倾角分析图
轨道综合分析图
查看轨道综合分析图